[Iaude] MPEC A97: 2024 AE2 [a=1.61,e=0.37,i=27.6,H=22.5]
    mpec at marsden.cfa.harvard.edu 
    mpec at marsden.cfa.harvard.edu
       
    Tue Jan  9 12:38:05 EST 2024
    
    
  
M.P.E.C. 2024-A97                               Issued 2024 January 9, 17:36 UT
     The Minor Planet Electronic Circulars contain information on unusual
         minor planets, routine data on comets and natural satellites,
         and occasional editorial announcements.  They are published
    on behalf of Division F of the International Astronomical Union by the
          Minor Planet Center, Smithsonian Astrophysical Observatory,
                          Cambridge, MA 02138, U.S.A.
			  
             Prepared using the Tamkin Foundation Computer Network
                              MPC at CFA.HARVARD.EDU
            URL https://www.minorplanetcenter.net/    ISSN 1523-6714
                                    2024 AE2                                    
Observations:
     K24A02E* C2024 01 07.25181003 06 16.435-12 07 26.16         19.67wXEA097F52
     K24A02E  C2024 01 07.26222703 06 15.276-12 04 21.66         19.83wXEA097F52
     K24A02E  C2024 01 07.28305203 06 12.954-11 58 11.53         19.78wXEA097F52
     K24A02E  C2024 01 07.41926803 05 58.555-11 17 32.55         19.42GVEA097F52
     K24A02E  C2024 01 07.42008503 05 58.478-11 17 17.74         19.60GVEA097F52
     K24A02E KC2024 01 07.43465503 05 59.959-11 11 29.26         20.1 GVEA097474
     K24A02E KC2024 01 07.43588503 05 59.794-11 11 07.12         19.6 GVEA097474
     K24A02E KC2024 01 07.43711503 05 59.683-11 10 44.80         19.9 GVEA097474
     K24A02E KC2024 01 07.43957303 05 59.434-11 10 00.44         19.6 GVEA097474
     K24A02E KC2024 01 07.49037503 05 54.502-10 54 43.85         19.8 GVEA097474
     K24A02E KC2024 01 07.49283203 05 54.266-10 53 59.28         19.8 GVEA097474
     K24A02E KC2024 01 07.49529103 05 54.034-10 53 15.04         19.6 GVEA097474
     K24A02E |C2024 01 08.04262003 05 15.270-08 06 10.80         19.3 GVEA097807
     K24A02E |C2024 01 08.04620003 05 14.940-08 05 03.90         18.8 GVEA097807
     K24A02E |C2024 01 08.04979003 05 14.520-08 03 57.10         19.6 GVEA097807
     K24A02E KB2024 01 08.72362 03 04 26.722-04 32 10.32               XEA097K74
     K24A02E KB2024 01 08.73894 03 04 25.250-04 27 13.72               XEA097K74
     K24A02E KB2024 01 08.75426 03 04 23.741-04 22 17.00         19.5 GXEA097K74
     K24A02E KB2024 01 08.82725803 04 17.39 -03 58 34.4          19.8 GXEA097958
     K24A02E KB2024 01 08.83099703 04 16.99 -03 57 21.8          19.5 GXEA097958
     K24A02E KB2024 01 08.83474103 04 16.64 -03 56 09.2          19.7 GXEA097958
     K24A02E KC2024 01 09.06560 03 03 58.04 -02 39 19.5          19.6 GVEA097W94
     K24A02E KC2024 01 09.07144 03 03 57.39 -02 37 24.6          20.1 GVEA097W94
     K24A02E KC2024 01 09.07724 03 03 56.84 -02 35 30.5          18.8 GVEA097W94
     K24A02E KC2024 01 09.68335 03 03 14.15 +00 44 14.9          19.3 rZEA097C97
     K24A02E KC2024 01 09.69295 03 03 13.11 +00 47 28.8          19.5 rZEA097C97
     K24A02E KC2024 01 09.70253 03 03 12.09 +00 50 41.7          19.2 rZEA097C97
     K24A02E KC2024 01 09.71213 03 03 11.06 +00 53 53.1          19.5 rZEA097C97
Observer details:
474 Mount John Observatory, Lake Tekapo.  Observers A. C. Gilmore, P. M.
    Kilmartin.  Measurer P. M. Kilmartin.  1.0-m f/7.7 Reflector + CCD.
807 Cerro Tololo Observatory, La Serena.  Observers T. Linder, R. Holmes.
    0.61-m f/11 Ritchey-Chretien + CCD.
958 Observatoire de Dax.  Observer P. Dupouy.  0.50-m f/4.5 Reflector + CMO.
C97 Al-Fulaij Observatory, Oman.  Observers A. Al-Haji, S. Al-Alawi.  0.61-m
    f/7.84 reflector + CCD.
F52 Pan-STARRS 2, Haleakala.  Observers J. Herman, T. Lowe, P. Minguez, A.
    Schultz, I. Smith.  Measurers K. Chambers, T. de Boer, J. Fairlamb, H.
    Gao, M. Huber, C.-C. Lin, E. Magnier, Y. Ramanjooloo, R. Wainscoat, R.
    Weryk.  1.8-m Ritchey-Chretien + CCD.
K74 Muensterschwarzach Observatory, Schwarzach.  Observer C. Gerhard.  0.30-m
    f/3.75 reflector + CMO.
W94 MAP, San Pedro de Atacama.  Observers A. Maury, G. Attard.  Measurers A.
    Maury, G. Attard, D. Parrott, F. Signoret, J.-M. Mari.  0.28-m f/2.2
    Schmidt astrograph + CCD.
Orbital elements:
2024 AE2                                                 Earth MOID = 0.0442 AU
Epoch 2023 Sept. 13.0 TT = JDT 2460200.5                MPC                     
M 306.80244              (2000.0)            P               Q                  
n   0.48194157     Peri.  347.60358     -0.09832666     -0.89057915             
a   1.6111642      Node   106.69151     +0.94804719     -0.21949602             
e   0.3652502      Incl.   27.62010     +0.30255313     +0.39835947             
P   2.05           H   22.54          G   0.15           U   8                  
Residuals in seconds of arc
240107 F52  0.0   0.3+    240107 474  0.0   0.1+    240108 958  0.4+  0.2-
240107 F52  0.1-  0.0     240107 474  0.1-  0.1-    240109 W94  0.0   0.7-
240107 F52  0.1-  0.2+    240108 807  0.4-  0.1+    240109 W94  0.4-  0.7-
240107 F52  0.0   0.2-    240108 807  0.5+  0.2+    240109 W94  0.6+  0.6-
240107 F52  0.1+  0.1-    240108 807  0.1-  0.1-    240109 C97  0.0   0.2-
240107 474  0.2+  0.2-    240108 K74  0.0   0.2-    240109 C97  0.2-  0.7+
240107 474  0.4-  0.2-    240108 K74  0.0   0.2+    240109 C97  0.2-  1.0+
240107 474  0.2-  0.0     240108 K74  0.3-  0.3+    240109 C97  0.4-  0.7-
240107 474  0.3-  0.1+    240108 958  0.3+  0.1+
240107 474  0.0   0.0     240108 958  0.0   0.0
Ephemeris:
2024 AE2                 a,e,i = 1.61, 0.37, 28                  q = 1.0227
Date    TT    R. A. (2000) Decl.     Delta      r    Elong.  Phase     V
2023 12 10    03 46 53.1 -62 10 36   0.3018  1.0480    93.6    69.7    22.5
...
2023 12 25    03 24 35.7 -49 57 41   0.1854  1.0255    97.9    71.8    21.5
...
2024 01 02    03 13 16.1 -33 00 24   0.1284  1.0227   104.4    68.7    20.5
...
2024 01 08    03 05 19.0 -08 20 13   0.09970 1.0250   112.0    62.8    19.8
2024 01 09    03 04 04.6 -03 01 33   0.09726 1.0257   113.3    61.7    19.7
2024 01 10    03 02 52.2 +02 31 06   0.09569 1.0265   114.3    60.8    19.7
...
2024 01 16    02 56 37.0 +35 01 38   0.1053  1.0336   115.7    59.1    19.8
...
2024 01 24    02 52 40.1 +61 37 10   0.1538  1.0485   110.7    61.4    20.8
...
2024 02 08    03 23 37.6 +80 16 12   0.2759  1.0913   105.1    60.8    22.1
A. U. Tomatic                (C) Copyright 2024 MPC           M.P.E.C. 2024-A97
    
    
More information about the Iaude
mailing list